Location: ????????
(48.4751°N, 37.6926°E)
Time: 13:12:54
(UTC+00:00)

Cosmos 2344 - Pass Details

Date: 20 January 2021
Orbit: 1243 x 2999 km, 63.3° (Epoch: 26 February)

Event Time Altitude Azimuth Distance (km) Brightness Sun altitude
Rises 16:31:42 0° 316° (NW) 4,467 7.0 -23.2°
Reaches altitude 10° 16:34:19 10° 319° (NW) 3,615 6.4 -23.6°
Maximum altitude 16:43:18 71° 44° (NE) 1,892 4.2 -25.1°
Enters shadow 16:49:31 33° 120° (ESE) 3,072 5.1 -26.2°
